Terminal Aerodrome Forecast
Issued by NWS Green Bay, WI

Home | Current Version | Previous Version | Graphics & Text | Print | Product List | Glossary On
Versions: 1 2 3 4 5 6 7 8 9 10 11 12 13 14 15 16 17 18 19 20 21 22 23 24 25 26 27 28 29 30 31 32 33 34 35 36 37 38 39 40 41
000
FTUS43 KGRB 172300
TAFGRB
TAF
KGRB 172337Z 1800/1824 33015G23KT 6SM -RA SCT016 OVC035
      TEMPO 1800/1801 5SM -RA BR SCT012 OVC016
     FM180200 32013G18KT P6SM VCSH SCT012 BKN025
     FM181200 35013KT P6SM SCT025 BKN050
     FM181500 35013G19KT P6SM SKC=

USA.gov is the U.S. government's official web portal to all federal, state and local government web resources and services.